Regional Weather Roundup
Issued by NWS

Home | Current Version | Previous Version | Graphics & Text | Print | Product List | Glossary On
Versions: 1 2 3 4 5 6 7 8 9 10 11 12 13 14 15 16 17 18 19 20 21 22 23 24 25 26 27 28 29 30 31 32 33 34 35 36 37 38 39 40 41 42 43 44 45 46 47 48 49 50
000
ASUS43 KIND 070809
RWRIN

WEATHER ROUNDUP FOR INDIANA
NATIONAL WEATHER SERVICE INDIANAPOLIS IN
300 AM EST WED DEC 07 2016

NOTE: "FAIR" INDICATES FEW OR NO CLOUDS BELOW 12,000 FEET WITH NO
SIGNIFICANT WEATHER AND/OR OBSTRUCTIONS TO VISIBILITY.

* - STATION DOES NOT REPORT WEATHER SUCH AS PRECIPITATION OR FOG.

+ - STATION NOT QUALITY CONTROLLED BY THE NATIONAL WEATHER SERVICE.
    USE DATA WITH CAUTION...ESPECIALLY DEWPOINT AND RELATIVE
    HUMIDITY OBSERVATIONS.

INZ001>003-010>013-019-020-070900-
NORTHWEST INDIANA

CITY           SKY/WX    TMP DP  RH WIND       PRES   REMARKS
GARY /AIRPORT/ PTCLDY    30  20  66 W9G16     30.03S WCI  22
KNOX *+        PTCLDY    28   5  37 W15       30.02F WCI  17
LA PORTE +     PTCLDY    29  25  84 W12G21    30.02R WCI  19
MICHIGAN CITY+ CLOUDY    30  21  69 W15G23    30.02S WCI  19
MONTICELLO +   PTCLDY    29  18  65 W12       30.05R WCI  19
RENSSELAER +     N/A     30  25  80 W14G20    30.05S WCI  20
VALPARAISO     PTCLDY    28  18  66 W16       30.02S WCI  16

$$

LMZ046-743>745-070900-
SOUTHERN LAKE MICHIGAN

STATION/POSITION TIME  TEMP    WIND        PRES    WAVE
                       AIR SEA DIR/SP/G            HT
                 (UTC) (F)     (DEG/KT/KT) (MB)    (FT)
BURNS HARBOR     0740   31     270/ 24/ 30 1016.9R
MICHIGAN CITY    0740   30     240/ 29/ 33   N/A

$$

INZ004-005-014>016-021>024-070900-
NORTH CENTRAL INDIANA

CITY           SKY/WX    TMP DP  RH WIND       PRES   REMARKS
GOSHEN         PTCLDY    27  19  72 W16       30.00S WCI  15
LOGANSPORT +   PTCLDY    28  21  74 W10G17    30.05S WCI  19
PERU/GRISSOM   PTCLDY    28  21  75 W10       30.02F WCI  19
ROCHESTER +    PTCLDY    32  25  74 W12G20    30.02F WCI  23
SOUTH BEND     MOCLDY    27  20  75 W18       30.00R WCI  14
WARSAW +       PTCLDY    28  19  69 W17       30.01S WCI  16

$$

INZ006>009-017-018-025>027-070900-
NORTHEAST INDIANA

CITY           SKY/WX    TMP DP  RH WIND       PRES   REMARKS
ANGOLA *+      CLOUDY    28  23  80 W12       29.97R WCI  18
AUBURN +       CLEAR     30  21  69 W9G18     30.01R WCI  22
FORT WAYNE     PTCLDY    28  21  75 W13       30.02R WCI  17
HUNTINGTON +   CLEAR     28  22  78 W10G16    30.02S WCI  19
KENDALLVILLE + CLOUDY    28  22  78 W12G23    29.98R WCI  18

$$

INZ028-029-035-036-043>045-051>053-070900-
WEST CENTRAL INDIANA

CITY           SKY/WX    TMP DP  RH WIND       PRES   REMARKS
CRAWFORDSVL +  CLEAR     26  22  87 W6        30.08R WCI  19
GREENCASTLE +  CLEAR     30  27  86 NW6       30.08R WCI  24
LAFAYETTE      PTCLDY    28  22  78 W10       30.08R WCI  19
TERRE HAUTE    PTCLDY    31  22  69 NW7       30.10R WCI  24

$$

INZ030>032-037>040-046>048-054>057-064-065-070900-
CENTRAL INDIANA

CITY           SKY/WX    TMP DP  RH WIND       PRES   REMARKS
CP ATTERBURY + CLEAR     30  28  93 NW3       30.09S
FISHERS *+     PTCLDY    27  25  93 CALM      30.08
FRANKFORT +    CLEAR     30  24  78 W7        30.08R WCI  23
GREENWOOD *+   PTCLDY    31  27  84 CALM      30.08R
INDIANAPOLIS   CLEAR     27  22  81 W6        30.07R WCI  20
-EAGLE CREEK   CLEAR     31  21  66 NW8       30.07R WCI  23
KOKOMO +       CLEAR     28  22  78 W12       30.05S WCI  18
MARION +       CLEAR     28  22  77 W13       30.05R WCI  18
MT COMFORT *+  PTCLDY    28  23  80 NW7       30.07R WCI  21
SHELBYVILLE    CLEAR     31  23  72 NW8       30.07R WCI  23
ZIONSVILLE +   PTCLDY    28  23  82 W6        30.07R WCI  21

$$

INZ033-034-041-042-049-050-058-059-070900-
EAST CENTRAL INDIANA

CITY           SKY/WX    TMP DP  RH WIND       PRES   REMARKS
MUNCIE         CLEAR     30  22  72 W10       30.05R WCI  21

$$

INZ060-061-067>069-081>083-085>088-070900-
SOUTHWEST INDIANA

CITY           SKY/WX    TMP DP  RH WIND       PRES   REMARKS
EVANSVILLE     CLOUDY    36  31  82 N3        30.13R
HUNTINGBURG *+ CLOUDY    32  30  93 CALM      30.12R
WASHINGTON +   PTCLDY    32  31  95 NW6       30.11R WCI  27

$$

INZ062-063-066-070>080-084-089>092-070900-
SOUTH CENTRAL AND SOUTHEAST INDIANA

CITY           SKY/WX    TMP DP  RH WIND       PRES   REMARKS
BLOOMINGTON    CLEAR     29  25  85 W3        30.07S
MADISON *+     PTCLDY    32  30  93 CALM      30.11R
NORTH VERNON + CLEAR    N/A N/A N/A CALM      30.09R

$$




USA.gov is the U.S. government's official web portal to all federal, state and local government web resources and services.